Home > Weather > Kulmbach > Past weeks

Flag for Germany Past Weather in Kulmbach, Bavaria, Germany — Yesterday and Last 2 Weeks

Now
68 °F

Passing clouds.


Feels Like: 68 °F
Forecast: 61 / 78 °F
Wind: 3 mph from West

Location: Grafenwoehr

Current Time: Jul 26, 2016 at 12:03:18 AM

Latest Report: Jul 25, 2016 at 10:58 PM


Visibility: N/A

Pressure: 30.06 "Hg

Humidity: 83%

Dew Point: 63 °F

Location of KulmbachLocation

Past Weather in Kulmbach — Graph

°F

Kulmbach Temperature Yesterday

Maximum temperature yesterday: 81 °F (at 5:58 PM)
Minimum temperature yesterday: 60 °F (at 1:58 AM)
Average temperature yesterday: 68 °F

High & Low Weather Summary for the Past Weeks

 TemperatureHumidityPressure
High88 °F (Jul 11, 2:58 PM)100% (Jul 11, 8:58 PM)30.31 "Hg (Jul 11, 8:58 PM)
Low46 °F (Jul 15, 12:58 AM)32% (Jul 19, 3:58 PM)29.83 "Hg (Jul 11, 1:58 AM)
Average65 °F78%30.04 "Hg
* Reported Jul 10 10:58 PM — Jul 25 10:58 PM, Kulmbach, Weather by CustomWeather, © 2016

Note: Actual official high and low records may vary slightly from our data, if they occured in-between our weather recording intervals... More about our weather records

Advertising

Kulmbach Weather History for the Previous 24 Hours

Scroll right to see more
 ConditionsComfort  
Time TempWeatherWind HumidityBarometerVisibility
10:58 PM
Mon, Jul 25
68 °FPassing clouds.3 mph83%30.06 "HgN/A
9:58 PM68 °FSunny.3 mph83%30.06 "HgN/A
8:58 PM73 °FSunny.3 mph69%30.04 "HgN/A
7:58 PM75 °FPassing clouds.7 mph61%30.02 "HgN/A
6:58 PM79 °FSunny.3 mph51%30.01 "HgN/A
5:58 PM81 °FScattered clouds.6 mph48%30.01 "HgN/A
4:58 PM79 °FScattered clouds.7 mph54%30.01 "HgN/A
3:58 PM79 °FPartly sunny.5 mph58%30.01 "HgN/A
2:58 PM79 °FBroken clouds.5 mph58%30.02 "HgN/A
1:58 PM79 °FBroken clouds.No wind48%30.03 "HgN/A
12:58 PM77 °FSunny.1 mph59%30.03 "HgN/A
11:58 AM72 °FSunny.No wind100%30.04 "HgN/A
10:58 AM67 °FScattered clouds.No wind100%30.07 "HgN/A
10:03 AM64 °FFog.No wind100%30.10 "Hg3 mi
9:58 AM64 °FFog.No wind100%30.08 "Hg2 mi
9:02 AM63 °FMild.N/A100%30.10 "HgN/A
8:58 AM63 °FFog.1 mph100%30.08 "Hg2 mi
7:58 AM62 °FMild.No wind100%30.06 "HgN/A
6:58 AM61 °FCool.No wind100%30.06 "HgN/A
5:58 AM61 °FCool.No wind100%30.05 "HgN/A
5:00 AM61 °FFog.No wind100%30.09 "Hg1 mi
4:01 AM61 °FCool.No wind100%30.09 "HgN/A
3:58 AM61 °FFog.No wind100%30.06 "Hg0 mi
3:04 AM61 °FCool.No wind100%30.09 "HgN/A
2:58 AM60 °FFog.No wind100%30.06 "Hg0 mi
1:58 AM60 °FFog.No wind100%30.07 "Hg3 mi
1:04 AM61 °FFog.No wind100%30.09 "Hg1 mi
12:58 AM61 °FFog.No wind100%30.05 "Hg5 mi
Weather by CustomWeather, © 2016

See weather overviewHow to use our weather pages